Wenatchee, WA

4:25 PM PDT on October 22, 2017 (GMT -0700)
Pangborn Memorial

Weather History for KEAT - May, 2012

Change the Weather History Date:

Sunday, May 20, 2012

  Actual Average Record
Temperature  
Mean Temperature 64 °F 61 °F  
Max Temperature 72 °F 72 °F 89 °F (1963)
Min Temperature 55 °F 50 °F 35 °F (1971)
Degree Days  
Heating Degree Days 1 5  
Month to date heating degree days 154 153  
Since 1 July heating degree days 5688 5669  
Cooling Degree Days 0 1  
Month to date cooling degree days 16 16  
Year to date cooling degree days 22 54  
Growing Degree Days 14 (Base 50)    
Moisture  
Dew Point 40 °F    
Average Humidity 52    
Maximum Humidity 67    
Minimum Humidity 36    
Precipitation  
Precipitation T in 0.03 in 0.86 in (2007)
Month to date precipitation 0.13 0.38  
Year to date precipitation 4.34 3.35  
Sea Level Pressure  
Sea Level Pressure 29.96 in    
Wind  
Wind Speed 6 mph (NW)    
Max Wind Speed 16 mph    
Max Gust Speed 23 mph    
Visibility 10 miles    
Events Rain    
T = Trace of Precipitation, MM = Missing Value Source: NWS Daily Summary

Daily Weather History Graph

Daily Weather History Graph

Search for Another Location

Airport or City:

Trip Planner

Search our weather history database for the weather conditions in past years. The results will help you decide how hot, cold, wet, or windy it might be!

Date:

Astronomy

May. 20, 2012 Rise Set
Actual Time 5:17 AM PDT 8:37 PM PDT
Civil Twilight 4:40 AM PDT 9:15 PM PDT
Nautical Twilight 3:51 AM PDT 10:04 PM PDT
Astronomical Twilight 2:48 AM PDT 11:08 PM PDT
Moon 5:02 AM PDT (5/20) 8:41 PM PDT (5/20)
Length of Visible Light 16h 34m
Length of Day
15h 20m
Waning Crescent, 0% of the Moon is Illuminated
May 20
Waning Crescent
May 20
New
May 28
First Quarter
Jun 4
Full
Jun 11
Last Quarter

Hourly Weather History & Observations

Time (PDT) Temp. Dew Point Humidity Pressure Visibility Wind Dir Wind Speed Gust Speed Precip Events Conditions
12:55 AM 61.0 °F 33.1 °F 35% 29.99 in 10.0 mi North 6.9 mph - N/A   Overcast
1:55 AM 60.1 °F 33.1 °F 36% 29.98 in 10.0 mi NNW 6.9 mph - N/A   Overcast
3:55 AM 59.0 °F 33.1 °F 38% 29.99 in 10.0 mi West 5.8 mph - N/A   Overcast
4:55 AM 57.0 °F 34.0 °F 42% 29.98 in 10.0 mi NNW 4.6 mph - N/A   Overcast
5:55 AM 55.9 °F 33.1 °F 42% 29.98 in 10.0 mi NW 8.1 mph - N/A   Clear
6:55 AM 57.0 °F 35.1 °F 44% 29.99 in 10.0 mi West 5.8 mph - N/A   Partly Cloudy
7:55 AM 59.0 °F 35.1 °F 41% 29.98 in 10.0 mi WNW 8.1 mph - N/A   Clear
8:55 AM 60.1 °F 36.0 °F 41% 29.99 in 10.0 mi West 4.6 mph - N/A   Scattered Clouds
9:55 AM 63.0 °F 36.0 °F 37% 29.99 in 10.0 mi Calm Calm - N/A   Mostly Cloudy
10:55 AM 64.0 °F 37.0 °F 37% 29.99 in 10.0 mi NNW 12.7 mph 20.7 mph N/A   Overcast
11:55 AM 66.0 °F 37.9 °F 36% 29.98 in 10.0 mi ENE 8.1 mph - 0.00 in Rain Light Rain
12:55 PM 66.9 °F 43.0 °F 42% 29.97 in 10.0 mi Calm Calm - 0.00 in   Mostly Cloudy
2:55 PM 72.0 °F 46.0 °F 40% 29.94 in 10.0 mi East 8.1 mph - N/A   Overcast
3:55 PM 71.1 °F 45.0 °F 39% 29.93 in 10.0 mi Calm Calm - N/A   Overcast
4:55 PM 70.0 °F 46.0 °F 42% 29.93 in 10.0 mi SSE 4.6 mph - N/A   Overcast
5:55 PM 70.0 °F 46.0 °F 42% 29.93 in 10.0 mi West 5.8 mph - 0.00 in   Overcast
6:55 PM 68.0 °F 45.0 °F 43% 29.93 in 10.0 mi WNW 8.1 mph - N/A   Mostly Cloudy
7:55 PM 64.9 °F 46.0 °F 50% 29.93 in 10.0 mi NNW 8.1 mph - N/A   Overcast
8:55 PM 63.0 °F 46.0 °F 54% 29.93 in 10.0 mi NNW 6.9 mph - 0.00 in   Overcast
9:55 PM 62.1 °F 46.9 °F 58% 29.94 in 10.0 mi NW 11.5 mph - N/A   Overcast
10:55 PM 60.1 °F 48.0 °F 64% 29.95 in 10.0 mi NW 8.1 mph - N/A   Clear
11:55 PM 59.0 °F 48.0 °F 67% 29.93 in 10.0 mi NNW 8.1 mph - N/A   Clear